Location: Chiroubles
(46.1812°N, 4.6660°E)
Time: 03:38:20
(UTC+00:00)

Tiros 1 - Pass Details

Date: 05 December 2020
Orbit: 630 x 663 km, 48.4° (Epoch: 16 January)

Event Time Altitude Azimuth Distance (km) Brightness Sun altitude
Rises 17:45:42 0° 289° (WNW) 2,995 11.5 -18.3°
Reaches altitude 10° 17:48:06 10° 285° (WNW) 2,078 10.7 -18.7°
Maximum altitude 17:52:46 54° 209° (SSW) 797 7.8 -19.5°
Enters shadow 17:55:41 22° 139° (SE) 1,433 8.6 -20.0°
